Regional Weather Roundup
Issued by NWS

Home | Current Version | Previous Version | Text Only | Print | Product List | Glossary On
Versions: 1 2 3 4 5 6 7 8 9 10 11 12 13 14 15 16 17 18 19 20 21 22 23 24 25 26 27 28 29 30 31 32 33 34 35 36 37 38 39 40 41 42 43 44 45 46 47 48 49 50
000
ASUS43 KLOT 281910
RWRIL

ILLINOIS REGIONAL WEATHER ROUNDUP
NATIONAL WEATHER SERVICE CHICAGO/ROMEOVILLE IL
100 PM CST SAT FEB 28 2015

NOTE: "FAIR" INDICATES FEW OR NO CLOUDS BELOW 12,000 FEET WITH NO
SIGNIFICANT WEATHER AND/OR OBSTRUCTIONS TO VISIBILITY.

* THESE STATIONS ARE NOT UNDER NWS QUALITY CONTROL. THEY ALSO MAY NOT
  REPORT WEATHER SUCH AS PRECIPITATION OR FOG.

ILZ001-002-007-009-015-016-024-282000-
NORTHWEST ILLINOIS

CITY           SKY/WX    TMP DP  RH WIND       PRES   REMARKS
MOLINE         SUNNY     16   1  51 SE7       30.59F WCI   6
STERLING*      SUNNY     16   3  57 SE7       30.62F WCI   6
SAVANNA*       SUNNY     16   3  55 SE3       30.62F
$$

ILZ003-004-008-010-011-017-018-282000-
NORTH CENTRAL ILLINOIS

CITY           SKY/WX    TMP DP  RH WIND       PRES   REMARKS
ROCKFORD       MOSUNNY   14   2  58 S10       30.64F WCI   1
FREEPORT*      SUNNY     13   2  61 SE5       30.63F WCI   6
ROCHELLE*      SUNNY     14   5  67 SE8       30.63F WCI   3
DE KALB*       SUNNY     13   1  60 SE10      30.62F WCI   0
PERU*          SUNNY     22   5  48 SE6       30.62F WCI  14
$$

ILZ005-006-012>014-019>023-282000-
NORTHEAST ILLINOIS

CITY           SKY/WX    TMP DP  RH WIND       PRES   REMARKS
CHICAGO-OHARE  FAIR      18   1  47 SE7       30.63F WCI   9
CHICAGO-MIDWAY MOSUNNY   20   0  41 S8        30.65F WCI  10
AURORA         SUNNY     18   2  49 SE9       30.64F WCI   7
LANSING*       SUNNY     19   2  47 S5        30.66F WCI  12
JOLIET*        SUNNY     17   3  55 SE8       30.65F WCI   6
WAUKEGAN       SUNNY     18  -1  43 SE8       30.62F WCI   8
DUPAGE AIRPORT SUNNY     17   1  49 S10       30.62F WCI   5
KANKAKEE*      SUNNY     20   8  60 E8        30.64F WCI  10
WHEELING       SUNNY     18  -1  43 S8        30.65F WCI   8
MORRIS*        SUNNY     19   8  61 SE7       30.63F WCI  10
ROMEOVILLE*    SUNNY     17   3  52 S9        30.64F WCI   6
NORTHERLY ISL    N/A     20  -2  38 S5          N/A  WCI  14
$$

LMZ740>746-282000-
SOUTHERN LAKE MICHIGAN

STATION/POSITION SKY/WX   TEMP    WIND        PRES    VSBY  WAVE
                          AIR SEA DIR/SP/G                  HT/PER
                          (F)     (DEG/KT/KT) (MB)    (MI)  (FT/S)
WAUKEGAN HARBOR            19     140/  9/ 12   N/A
HARRISON CRIB              16     130/ 10/ 13   N/A
BURNHAM HARBOR             20     150/ 10       N/A
CALUMET HARBOR             19     140/  7/  9 1036.5F
MICHIGAN CITY              18     140/  7/  9   N/A
$$

ILZ025>027-034>036-040-047-049-050-058-095>099-282000-
WEST-CENTRAL ILLINOIS

CITY           SKY/WX    TMP DP  RH WIND       PRES   REMARKS
QUINCY         CLOUDY    22   4  46 SE9       30.54F WCI  12
GALESBURG*     SUNNY     21   6  53 S7        30.57F WCI  12
MACOMB*        PTSUNNY   21   8  58 SE10      30.58F WCI  10
JACKSONVILLE*  MOSUNNY   24  11  58 SE7       30.56F WCI  16
PITTSFIELD*    CLOUDY    24  11  56 SE7       30.55F WCI  16
$$

ILZ028>032-037-038-041>044-048-051>054-059>061-282000-
CENTRAL ILLINOIS

CITY           SKY/WX    TMP DP  RH WIND       PRES   REMARKS
PONTIAC        SUNNY     19  10  69 E10       30.63F WCI   7
BLOOMINGTON    SUNNY     24  10  55 S12       30.58F WCI  13
DECATUR        PTSUNNY   23   9  55 SE12      30.59F WCI  12
PEORIA         SUNNY     24   8  50 SE10      30.59F WCI  14
LACON*         SUNNY     19   5  54 SE7       30.61F WCI  10
LINCOLN*       SUNNY     25  13  58 SE10      30.61F WCI  15
SPRINGFIELD    SUNNY     25  10  53 SE10      30.57F WCI  15
TAYLORVILLE    SUNNY     25   9  50 SE9       30.57F WCI  15
$$

ILZ033-039-045-046-055>057-062-063-282000-
EAST-CENTRAL ILLINOIS

CITY           SKY/WX    TMP DP  RH WIND       PRES   REMARKS
CHAMPAIGN      SUNNY     21  10  62 SE12      30.59F WCI   9
DANVILLE*      SUNNY     24  10  54 E6        30.57F WCI  17
RANTOUL*       SUNNY     26  11  55 S8        30.60F WCI  17
MATTOON        SUNNY     25   8  48 E8        30.57F WCI  16
PARIS*         SUNNY     27   9  47 SE3       30.60F
$$

ILZ079-100>102-282000-
SOUTHWEST ILLINOIS

CITY           SKY/WX    TMP DP  RH WIND       PRES   REMARKS
ALTON          CLOUDY    27   9  46 SE10      30.56F WCI  17
BELLEVILLE     PTSUNNY   30  12  47 SE8       30.54F WCI  23
CAHOKIA*       CLOUDY    29  12  49 SE8       30.55F WCI  21
SPARTA*        CLOUDY    29  14  54 SE8       30.55F WCI  21
$$

ILZ064>066-069>071-074>076-080>082-084>086-088>090-092>094-282000-
SOUTH-CENTRAL ILLINOIS

CITY           SKY/WX    TMP DP  RH WIND       PRES   REMARKS
CARBONDALE     PTSUNNY   31  13  47 E6        30.55F WCI  25
CAIRO*         PTSUNNY   33  17  53 NE6       30.54F WCI  27
EFFINGHAM*     CLOUDY    27   5  39 E9        30.59F WCI  18
MARION         CLOUDY    32  14  47 SE8       30.56S WCI  25
MT. VERNON     CLOUDY    30  12  47 E9        30.57F WCI  22
CENTRALIA*     PTSUNNY   30  10  44 E8        30.55F WCI  22
SALEM*         CLOUDY    30   8  39 E6        30.56F WCI  24
METROPOLIS*    PTSUNNY   33  16  49 E7        30.54F WCI  27
$$

ILZ067-068-072-073-078-083-087-091-282000-
SOUTHEAST ILLINOIS

CITY           SKY/WX    TMP DP  RH WIND       PRES   REMARKS
LAWRENCEVILLE  CLOUDY    27  12  53 E8        30.60F WCI  19
FLORA*         CLOUDY    28  11  48 SE5       30.58F WCI  23
FAIRFIELD*     CLOUDY    31  14  50 E8        30.55F WCI  23
HARRISBURG*    MOSUNNY   31  16  53 SE7       30.57F WCI  24
ROBINSON*      SUNNY     29   8  42 E10       30.60F WCI  20
CARMI*         PTSUNNY   34  17  50 E9        30.56F WCI  27
$$

ABBREVIATIONS USED IN REMARKS
   TC - TEMPERATURE IN CELSIUS
  WCI - WIND CHILL INDEX
   HX - HEAT INDEX
  VSB - VISIBILITY
$$



USA.gov is the U.S. government's official web portal to all federal, state and local government web resources and services.